Stations météo

réclame
Mon MeteoGroup
Nice, France (7690): Température de l'air & dewpoint: 13.07.2019 06:00:00 - 19.07.2019 06:00:00 (CEST)Nice, France (7690): Température de l'air 5cm: 13.07.2019 06:00:00 - 19.07.2019 06:00:00 (CEST)Nice, France (7690): Température de l'air -20cm & Température de l'air -100cm: 13.07.2019 06:00:00 - 19.07.2019 06:00:00 (CEST)Nice, France (7690): Vitesse du vent & gusts: 13.07.2019 06:00:00 - 19.07.2019 06:00:00 (CEST)Nice, France (7690): Direction du vent: 13.07.2019 06:00:00 - 19.07.2019 06:00:00 (CEST)Nice, France (7690): reduced air pressure: 13.07.2019 06:00:00 - 19.07.2019 06:00:00 (CEST)Nice, France (7690): visibility: 13.07.2019 06:00:00 - 19.07.2019 06:00:00 (CEST)Nice, France (7690): Ensoleillement: 13.07.2019 06:00:00 - 19.07.2019 06:00:00 (CEST)Nice, France (7690): Quantités de précipitations: 13.07.2019 06:00:00 - 19.07.2019 06:00:00 (CEST)
Date & Time tt [°C] td [°C] tt 5cm [°C] tt -20cm [°C] tt -100cm [°C] ff [km/h] ff [knt] fx [km/h] fx [knt] dd ppp [hPa] vv [km] sd [min] rr [mm]
19.07.2019 06:00:00 - - - - - - - - - - - - - -
19.07.2019 05:00:00 22,2 17,6 21,7 26,4 25,1 11 6 13 7 NW 1014,7 20 0 0,0
19.07.2019 04:00:00 22,5 18,5 21,9 26,4 25,1 10 5 12 7 NNW 1014,6 20 0 0,0
19.07.2019 03:00:00 22,9 19,3 22,3 26,4 25,1 8 5 11 6 NNW 1014,5 20 0 0,0
19.07.2019 02:00:00 23,3 19,9 22,5 26,4 25,1 5 3 9 5 NNW 1014,3 20 0 0,0
19.07.2019 01:00:00 23,4 20,3 22,7 26,4 25,1 7 4 9 5 WNW 1014,0 20 0 0,0
19.07.2019 00:00:00 23,8 20,5 23,2 26,4 25,1 3 2 8 5 E 1013,9 20 0 0,0
18.07.2019 23:00:00 23,9 20,4 23,5 26,4 25,1 5 3 8 4 ESE 1013,8 20 0 0,0
18.07.2019 22:00:00 24,1 20,2 23,7 26,4 25,1 5 3 7 4 ESE 1013,4 20 0 0,0
18.07.2019 21:00:00 24,3 20,2 24,4 26,4 25,1 4 2 8 5 ESE 1012,8 20 18 0,0
18.07.2019 20:00:00 24,6 20,1 25,6 26,4 25,1 6 3 11 6 ESE 1012,6 20 0 0,0
18.07.2019 19:00:00 24,9 19,9 26,9 26,4 25,1 7 4 14 7 SSE 1012,3 20 34 0,0
18.07.2019 18:00:00 25,5 19,9 29,7 26,4 25,1 10 5 21 11 ESE 1012,1 20 60 0,0
18.07.2019 17:00:00 25,6 20,6 29,7 26,4 25,1 15 8 22 12 E 1012,2 20 49 0,0
18.07.2019 16:00:00 25,7 20,7 30,9 26,4 25,1 13 7 17 9 E 1012,5 20 56 0,0
18.07.2019 15:00:00 25,8 20,4 32,4 26,4 25,1 13 7 21 11 ESE 1012,4 20 60 0,0
18.07.2019 14:00:00 26,0 20,3 32,2 26,4 25,2 14 8 21 12 ESE 1012,3 20 60 0,0
18.07.2019 13:00:00 26,5 20,3 32,0 26,4 25,1 17 9 22 12 ESE 1012,2 20 60 0,0
18.07.2019 12:00:00 25,9 19,8 31,9 26,4 25,1 11 6 18 10 ESE 1012,3 20 60 0,0
18.07.2019 11:00:00 25,6 19,5 30,4 26,4 25,2 13 7 18 10 E 1011,8 20 58 0,0
18.07.2019 10:00:00 25,6 19,5 28,9 26,4 25,1 9 5 16 9 E 1011,7 25 60 0,0
18.07.2019 09:00:00 24,1 16,9 22,6 26,5 25,2 11 6 22 12 NNW 1011,6 25 18 0,0
18.07.2019 08:00:00 21,8 16,1 21,4 26,4 25,1 14 8 22 12 NNW 1011,3 30 0 0,0
18.07.2019 07:00:00 21,2 16,4 20,7 26,5 25,2 15 8 20 11 NNW 1011,0 30 1 0,0
18.07.2019 06:00:00 20,9 16,5 20,7 26,4 25,2 14 7 18 10 NNW 1011,0 30 0 0,0
18.07.2019 05:00:00 21,4 17,2 21,1 26,5 25,2 14 7 18 10 NW 1010,8 30 0 0,0
18.07.2019 04:00:00 22,6 18,2 22,3 26,4 25,2 9 5 16 9 NNE 1010,5 30 0 0,0
18.07.2019 03:00:00 22,8 18,8 21,7 26,4 25,2 8 5 14 8 NNE 1010,5 30 0 0,0
18.07.2019 02:00:00 23,1 18,8 22,4 26,4 25,2 9 5 14 7 NNE 1010,8 10 0 0,0
18.07.2019 01:00:00 23,8 20,3 22,9 26,4 25,2 8 4 10 5 NE 1011,1 30 0 0,0
18.07.2019 00:00:00 23,5 20,4 22,5 26,4 25,2 0 0 3 2 N 1011,5 30 0 0,0
17.07.2019 23:00:00 23,8 20,5 23,3 26,4 25,2 3 2 8 4 SSE 1011,8 30 0 0,0
17.07.2019 22:00:00 24,1 21,0 23,6 26,4 25,2 5 3 10 6 SSE 1011,8 30 0 0,0
17.07.2019 21:00:00 24,2 20,1 24,3 26,4 25,2 8 4 14 8 ESE 1011,4 30 28 0,0
17.07.2019 20:00:00 24,6 20,7 25,7 26,4 25,3 10 6 16 9 ESE 1011,4 30 25 0,0
17.07.2019 19:00:00 25,4 20,2 29,0 26,4 25,3 13 7 19 10 E 1011,6 30 60 0,0
17.07.2019 18:00:00 25,7 20,5 30,0 26,5 25,3 15 8 21 11 E 1012,0 30 60 0,0
17.07.2019 17:00:00 26,1 20,2 30,8 26,5 25,3 16 9 23 13 ESE 1012,3 30 60 0,0
17.07.2019 16:00:00 26,1 20,4 32,2 26,5 25,3 16 9 21 11 E 1012,3 30 60 0,0
17.07.2019 15:00:00 25,8 20,1 32,4 26,5 25,3 13 7 16 9 E 1012,7 30 60 0,0
17.07.2019 14:00:00 25,6 19,5 32,3 26,6 25,3 13 7 19 10 E 1012,9 30 60 0,0
17.07.2019 13:00:00 25,5 20,5 31,9 26,6 25,3 14 8 22 12 ESE 1013,2 30 60 0,0
17.07.2019 12:00:00 25,4 20,2 31,0 26,6 25,3 18 10 25 14 ESE 1013,4 30 60 0,0
17.07.2019 11:00:00 25,4 20,6 29,5 26,6 25,3 19 10 24 13 E 1013,4 40 58 0,0
17.07.2019 10:00:00 25,2 19,1 29,5 26,6 25,3 16 8 21 11 E 1013,8 40 60 0,0
17.07.2019 09:00:00 25,0 16,2 28,1 26,7 25,3 8 4 15 8 NE 1013,7 40 60 0,0
17.07.2019 08:00:00 23,6 13,7 23,4 26,7 25,4 9 5 18 10 N 1013,4 50 60 0,0
17.07.2019 07:00:00 21,8 13,4 21,0 26,7 25,4 14 8 20 11 NNW 1013,1 50 28 0,0
17.07.2019 06:00:00 21,8 13,4 21,0 26,7 25,4 11 6 16 9 NNW 1013,1 50 0 0,0
17.07.2019 05:00:00 22,1 13,4 20,8 26,7 25,4 8 4 14 7 NW 1012,7 50 0 0,0
17.07.2019 04:00:00 22,5 13,3 21,3 26,7 25,4 11 6 14 8 N 1012,7 50 0 0,0
17.07.2019 03:00:00 23,0 13,2 21,8 26,7 25,4 10 5 16 9 N 1013,1 50 0 0,0
17.07.2019 02:00:00 22,6 13,4 21,7 26,7 25,4 10 6 16 9 NNW 1013,6 50 0 0,0
17.07.2019 01:00:00 22,9 13,4 22,1 26,7 25,4 12 7 16 9 NNW 1013,6 50 0 0,0
17.07.2019 00:00:00 23,3 13,5 22,4 26,8 25,4 11 6 15 8 NNW 1013,7 50 0 0,0
16.07.2019 23:00:00 24,2 15,1 23,1 26,8 25,5 10 6 15 8 NNE 1013,7 50 0 0,0
16.07.2019 22:00:00 25,1 16,5 23,6 26,8 25,4 6 3 13 7 SW 1013,6 50 0 0,0
16.07.2019 21:00:00 25,8 14,6 25,3 26,8 25,5 10 5 16 8 SSW 1013,5 50 27 0,0
16.07.2019 20:00:00 26,3 17,6 28,5 26,8 25,4 13 7 23 13 SSW 1013,5 40 60 0,0
16.07.2019 19:00:00 27,0 15,4 30,2 26,9 25,4 19 10 28 15 SSW 1013,6 40 60 0,0
16.07.2019 18:00:00 27,4 15,4 32,2 26,9 25,4 23 12 29 16 SSW 1013,9 40 60 0,0
16.07.2019 17:00:00 27,3 16,6 33,7 26,9 25,4 22 12 29 16 SSW 1014,3 40 60 0,0
16.07.2019 16:00:00 27,2 17,4 34,4 27,0 25,5 23 13 32 17 SSW 1014,4 40 60 0,0
16.07.2019 15:00:00 27,3 16,9 34,7 27,1 25,5 22 12 29 16 SSW 1014,4 40 60 0,0
16.07.2019 14:00:00 26,8 16,1 34,2 27,1 25,5 22 12 28 15 S 1014,2 40 60 0,0
16.07.2019 13:00:00 27,1 15,8 34,3 27,2 25,5 25 13 31 17 SSW 1014,2 40 60 0,0
16.07.2019 12:00:00 26,8 14,5 34,0 27,2 25,5 18 10 24 13 S 1014,2 40 60 0,0
16.07.2019 11:00:00 26,3 13,4 32,7 27,2 25,5 9 5 16 9 S 1014,2 40 60 0,0
16.07.2019 10:00:00 25,7 10,7 27,9 27,2 25,5 12 7 23 12 NW 1014,2 40 60 0,0
16.07.2019 09:00:00 23,1 11,2 24,2 27,3 25,5 19 10 28 15 NNW 1014,3 40 60 0,0
16.07.2019 08:00:00 21,0 10,8 20,5 27,3 25,5 20 11 40 21 NNW 1013,7 40 60 0,0
16.07.2019 07:00:00 19,2 10,5 18,1 27,3 25,5 23 12 31 17 NNW 1013,2 40 27 0,0
16.07.2019 06:00:00 18,7 10,5 18,1 27,4 25,5 22 12 30 16 NNW 1013,0 40 0 0,0
16.07.2019 05:00:00 19,0 10,8 18,1 27,4 25,5 21 11 32 17 NNW 1012,7 40 0 0,0
16.07.2019 04:00:00 19,6 10,8 18,6 27,4 25,5 24 13 32 18 NW 1012,7 40 0 0,0
16.07.2019 03:00:00 19,8 11,3 18,9 27,4 25,5 20 11 29 16 NW 1012,6 40 0 0,0
16.07.2019 02:00:00 20,1 11,6 18,8 27,4 25,5 17 9 28 15 NNW 1012,8 40 0 0,0
16.07.2019 01:00:00 21,1 12,0 19,3 27,5 25,5 15 8 27 14 NNW 1012,7 40 0 0,0
16.07.2019 00:00:00 21,4 12,5 20,4 27,5 25,5 16 9 24 13 NNW 1012,0 40 0 0,0
15.07.2019 23:00:00 21,9 12,4 20,7 27,5 25,5 16 9 22 12 NW 1011,5 40 0 0,0
15.07.2019 22:00:00 23,6 11,6 21,7 27,5 25,5 8 4 16 8 NNW 1010,8 40 0 0,0
15.07.2019 21:00:00 23,9 12,2 23,0 27,5 25,5 5 3 14 8 NNE 1010,1 40 46 0,0
15.07.2019 20:00:00 24,2 11,5 23,4 27,6 25,5 11 6 24 13 NNE 1009,8 40 17 0,0
15.07.2019 19:00:00 23,3 13,2 22,7 27,6 25,5 12 6 23 12 NNE 1009,2 40 0 0,0
15.07.2019 18:00:00 24,3 11,6 25,2 27,6 25,5 13 7 25 14 NE 1008,3 40 0 0,0
15.07.2019 17:00:00 25,3 11,8 27,2 27,6 25,5 16 9 30 16 NE 1008,1 30 3 0,0
15.07.2019 16:00:00 25,5 14,0 26,3 27,6 25,5 12 7 21 11 NNW 1007,8 30 0 0,0
15.07.2019 15:00:00 24,9 15,2 28,3 27,6 25,4 11 6 19 11 S 1007,3 30 25 0,0
15.07.2019 14:00:00 23,6 14,6 22,4 27,7 25,4 6 3 11 6 S 1006,4 30 6 0,0
15.07.2019 13:00:00 21,6 15,2 18,8 27,7 25,5 7 4 16 9 NNW 1006,3 30 0 0,6
15.07.2019 12:00:00 21,3 14,9 18,3 27,7 25,4 5 3 28 15 NE 1005,9 30 0 3,2
15.07.2019 11:00:00 21,3 15,2 19,5 27,7 25,5 22 12 34 19 NNE 1005,8 20 0 0,4
15.07.2019 10:00:00 23,6 16,6 25,3 27,7 25,4 16 9 23 12 N 1005,2 40 16 0,0
15.07.2019 09:00:00 23,4 16,9 23,0 27,7 25,5 13 7 19 10 N 1005,5 40 27 0,0
15.07.2019 08:00:00 22,4 16,9 22,0 27,7 25,4 13 7 21 11 NNW 1005,4 40 4 0,0
15.07.2019 07:00:00 21,7 16,2 21,0 27,7 25,4 7 4 23 13 N 1005,4 40 0 0,0
15.07.2019 06:00:00 21,3 16,3 20,9 27,7 25,4 13 7 23 13 NNW 1005,5 40 0 0,0
15.07.2019 05:00:00 22,3 16,1 21,8 27,7 25,4 7 4 21 11 NNW 1005,8 40 0 0,0
15.07.2019 04:00:00 22,5 16,3 22,3 27,7 25,4 12 7 19 10 NNW 1006,1 40 0 0,0
15.07.2019 03:00:00 23,2 15,5 22,4 27,7 25,4 14 7 24 13 N 1006,4 40 0 0,0
15.07.2019 02:00:00 23,2 15,8 22,4 27,7 25,4 18 10 35 19 N 1007,0 40 0 0,0
15.07.2019 01:00:00 23,0 16,1 23,0 27,6 25,4 26 14 45 24 NNE 1007,1 40 0 0,0
15.07.2019 00:00:00 23,8 16,1 23,8 27,6 25,4 29 15 50 27 N 1007,8 40 0 0,0
14.07.2019 23:00:00 24,8 15,7 24,7 27,6 25,4 35 19 48 26 N 1008,0 40 0 0,0
14.07.2019 22:00:00 24,7 17,2 24,8 27,6 25,4 17 9 37 20 N 1008,0 40 0 0,0
14.07.2019 21:00:00 26,7 16,0 26,7 27,6 25,4 14 8 27 14 N 1007,7 40 0 0,0
14.07.2019 20:00:00 26,9 16,2 27,2 27,6 25,3 15 8 23 13 E 1007,5 40 0 0,0
14.07.2019 19:00:00 26,7 18,6 28,1 27,6 25,3 17 9 29 15 ENE 1007,7 25 30 0,0
14.07.2019 18:00:00 27,2 19,8 31,7 27,6 25,3 23 12 29 16 E 1007,9 25 60 0,0
14.07.2019 17:00:00 28,0 19,8 33,1 27,6 25,3 24 13 30 16 E 1008,4 20 60 0,0
14.07.2019 16:00:00 28,0 20,0 33,8 27,6 25,3 25 13 31 17 E 1008,6 20 60 0,0
14.07.2019 15:00:00 27,8 20,6 34,0 27,7 25,3 26 14 36 19 E 1008,9 20 60 0,0
14.07.2019 14:00:00 28,1 21,1 33,9 27,7 25,3 30 16 37 20 E 1009,1 20 60 0,0
14.07.2019 13:00:00 28,0 20,8 34,3 27,7 25,3 27 14 35 19 E 1009,7 20 60 0,0
14.07.2019 12:00:00 28,4 21,7 33,1 27,7 25,3 25 14 35 19 E 1010,0 20 60 0,0
14.07.2019 11:00:00 27,9 20,7 32,8 27,7 25,3 27 15 33 18 E 1010,1 20 60 0,0
14.07.2019 10:00:00 27,7 20,8 28,2 27,7 25,3 15 8 19 10 E 1010,1 20 54 0,0
14.07.2019 09:00:00 26,1 13,2 27,9 27,7 25,3 12 7 23 13 NW 1010,1 30 53 0,0
14.07.2019 08:00:00 24,8 14,0 25,1 27,7 25,3 8 4 24 13 NW 1009,8 30 9 0,0
14.07.2019 07:00:00 24,8 15,7 23,5 27,7 25,3 16 9 22 12 E 1009,6 30 0 0,0
14.07.2019 06:00:00 24,7 12,6 23,9 27,7 25,3 9 5 16 9 NNE 1009,3 50 0 0,0
14.07.2019 05:00:00 25,2 12,4 24,1 27,6 25,3 8 5 22 12 N 1009,3 50 0 0,0
14.07.2019 04:00:00 25,0 11,9 24,2 27,6 25,3 10 6 15 8 NNW 1009,3 50 0 0,0
14.07.2019 03:00:00 24,9 11,8 24,0 27,6 25,3 10 6 22 12 NNW 1009,6 50 0 0,0
14.07.2019 02:00:00 25,0 11,9 23,8 27,6 25,3 10 6 15 8 NNW 1010,0 30 0 0,0
14.07.2019 01:00:00 24,9 12,5 24,0 27,5 25,3 8 5 20 11 NW 1010,3 30 0 0,0
14.07.2019 00:00:00 25,4 14,2 24,6 27,5 25,3 13 7 16 9 NNW 1010,2 54 0 0,0
13.07.2019 23:00:00 25,6 17,0 24,4 27,5 25,2 8 5 11 6 NW 1010,3 30 0 0,0
13.07.2019 22:00:00 26,5 21,7 25,0 27,5 25,3 4 2 8 5 SW 1009,8 30 0 0,0
13.07.2019 21:00:00 27,1 20,9 27,0 27,5 25,2 7 4 9 5 S 1009,1 35 47 0,0
13.07.2019 20:00:00 28,0 20,8 31,7 27,5 25,2 5 3 9 5 SE 1008,7 35 60 0,0
13.07.2019 19:00:00 28,4 20,2 33,9 27,5 25,2 6 3 10 5 SE 1008,5 30 60 0,0
13.07.2019 18:00:00 28,3 19,8 34,8 27,5 25,2 7 4 10 6 SE 1008,5 30 60 0,0
13.07.2019 17:00:00 28,1 21,4 35,0 27,5 25,2 8 5 13 7 E 1008,7 30 60 0,0
13.07.2019 16:00:00 28,3 21,6 35,8 27,5 25,2 8 4 14 7 E 1009,0 30 60 0,0
13.07.2019 15:00:00 27,9 21,4 35,5 27,5 25,2 11 6 17 9 SE 1009,1 30 60 0,0
13.07.2019 14:00:00 27,7 21,7 35,4 27,5 25,2 13 7 17 9 SE 1009,6 30 60 0,0
13.07.2019 13:00:00 27,7 21,3 36,5 27,5 25,2 12 6 17 9 SSE 1009,9 30 60 0,0
13.07.2019 12:00:00 27,4 21,0 35,4 27,5 25,2 11 6 16 9 SSE 1009,9 30 60 0,0
13.07.2019 11:00:00 27,2 21,0 35,5 27,5 25,2 13 7 16 9 S 1009,5 30 60 0,0
13.07.2019 10:00:00 26,5 20,1 32,2 27,5 25,2 5 3 14 7 S 1009,6 30 60 0,0
13.07.2019 09:00:00 26,3 18,2 28,6 27,5 25,2 6 4 19 10 NW 1009,4 30 60 0,0
13.07.2019 08:00:00 24,1 16,6 24,2 27,5 25,2 14 7 20 11 NNW 1008,9 30 60 0,0
13.07.2019 07:00:00 22,2 16,9 21,5 27,5 25,2 11 6 19 10 NNW 1008,7 30 30 0,0
13.07.2019 06:00:00 21,9 17,3 21,4 27,5 25,2 16 8 19 10 NW 1008,7 30 0 0,0

tt = Température de l'air
td = dewpoint
tt 5cm = Température de l'air 5cm
tt -20cm = Température de l'air -20cm
tt -100cm = Température de l'air -100cm
ff = Vitesse du vent
fx = gusts
dd = Direction du vent
ppp = reduced air pressure
vv = visibility
sd = Ensoleillement
rr = Quantités de précipitations

stations d'obs. à proximité